Flag for Germany Weather past 2 weeks in Tuttlingen, Baden-Württemberg, Germany

Now
50 °F

Overcast.


Feels Like: 47 °F
Forecast: 44 / 47 °F
Wind: 7 mph from West

Location: Konstanz

Current Time: Dec 18, 2014 at 5:40:33 PM

Latest Report: Dec 18, 2014 at 5:00 PM


Visibility: 11 mi

Pressure: 30.14 "Hg

Humidity: 87%

Dew point: 46 °F

Location of TuttlingenLocation

Historic Weather in Tuttlingen — Graph

°F

Tuttlingen temperature yesterday

Maximum temperature yesterday: 43 °F (at 1:00 PM)
Minimum temperature yesterday: 39 °F (at 6:00 AM)
Average temperature yesterday: 41 °F

Past Weeks' High & Low Weather Summary

 TemperatureHumidityPressure
High53 °F (Dec 13, 4:00 PM)100% (Dec 10, 5:00 AM)30.47 "Hg (Dec 10, 5:00 AM)
Low30 °F (Dec 10, 4:00 AM)49% (Dec 13, 2:00 PM)29.85 "Hg (Dec 12, 10:00 PM)
Average41 °F84%30.10 "Hg
* Reported Dec 3 4:00 PM — Dec 18 4:00 PM, Tuttlingen, Weather by CustomWeather, © 2014

Note: Actual official high and low records may vary slightly from our data, if they occured in-between our weather recording intervals... More about our weather records

Advertising

Tuttlingen weather history for previous 24 hours

 ConditionsComfort  
Time TempWeatherWind HumidityBarometerVisibility
4:00 PM
Dec 18
49 °FOvercast.7 mph90%30.12 "Hg11 mi
3:00 PM47 °FSprinkles. Overcast.7 mph93%30.11 "Hg5 mi
2:00 PM49 °FLight rain. Overcast.6 mph84%30.11 "Hg9 mi
1:00 PM48 °FLight rain. Overcast.6 mph83%30.10 "Hg9 mi
12:00 PM48 °FLight rain. Overcast.5 mph84%30.11 "Hg11 mi
11:00 AM48 °FLight rain. Overcast.6 mph81%30.11 "Hg22 mi
10:00 AM47 °FOvercast.5 mph80%30.11 "Hg19 mi
9:00 AM46 °FLight rain. Overcast.3 mph82%30.10 "Hg14 mi
8:00 AM45 °FOvercast.2 mph87%30.10 "Hg19 mi
7:00 AM44 °FOvercast.1 mph88%30.10 "Hg16 mi
6:00 AM44 °FOvercast.1 mph87%30.09 "Hg16 mi
5:00 AM44 °FOvercast.5 mph85%30.09 "Hg19 mi
4:00 AM44 °FOvercast.6 mph83%30.08 "Hg28 mi
3:00 AM44 °FOvercast.3 mph86%30.09 "Hg25 mi
2:00 AM44 °FFog.6 mph86%30.07 "Hg28 mi
1:00 AM43 °FLight rain. Overcast.5 mph87%30.06 "Hg22 mi
12:00 AM43 °FFog.7 mph86%30.05 "Hg25 mi
11:00 PM
Dec 17
42 °FOvercast.6 mph87%30.04 "Hg31 mi
10:00 PM42 °FOvercast.6 mph86%30.02 "Hg43 mi
9:00 PM41 °FOvercast.6 mph89%30.01 "Hg40 mi
8:00 PM40 °FFog.6 mph89%29.99 "Hg22 mi
7:00 PM40 °FLight freezing rain. Overcast.6 mph92%29.97 "Hg11 mi
6:00 PM40 °FLight rain. Overcast.2 mph94%29.95 "Hg8 mi
5:00 PM40 °FDrizzle. Low clouds.5 mph93%29.93 "Hg4 mi
Weather by CustomWeather, © 2014

See weather overviewHow to use our weather pages